This demonstration page uses our WeatherBlox Daily Observations layout. Learn more.

Left ArrowRight Arrow

39.92423, -83.80882

Hourly Observations for April 16, 2020

Temp ( °F °C ) Dew Point ( °F °C ) Humidity (%) Winds ( mph kmh ) Pressure ( in mb ) Visibility ( mi km ) Precip ( " mm )
12:56 am 00:56 Clear 29 -1.7 25 -3.9 85 85 WNW 6 9 30.22 1023 10 16.0934 0 0
1:56 am 01:56 Clear 29 -1.7 25 -3.9 85 85 W 5 7 30.22 1024 10 16.0934 0 0
2:56 am 02:56 Clear 28 -2.2 26 -3.3 92 92 WSW 5 7 30.23 1024 10 16.0934 0 0
3:56 am 03:56 Clear 28 -2.2 25 -3.9 88 88 SW 5 7 30.24 1024 10 16.0934 0 0
4:56 am 04:56 Clear 27 -2.8 25 -3.9 92 92 SW 6 9 30.25 1024 10 16.0934 0 0
5:56 am 05:56 Clear 27 -2.8 24 -4.4 89 89 SW 6 9 30.26 1025 10 16.0934 0 0
6:56 am 06:56 Sunny 27 -2.8 24 -4.4 89 89 SSW 7 11 30.27 1025 10 16.0934 0 0
7:56 am 07:56 Sunny 28 -2.2 25 -3.9 88 88 SSW 8 13 30.3 1026 10 16.0934 0 0
8:56 am 08:56 Sunny 32 0 26 -3.3 79 79 SW 7 11 30.31 1027 10 16.0934 0 0
9:56 am 09:56 Sunny 36 2.2 24 -4.4 62 62 W 14 22 30.32 1027 10 16.0934 0 0
10:56 am 10:56 Mostly Sunny 39 3.9 21 -6.1 48 48 W 16 26 30.33 1027 10 16.0934 0 0
11:56 am 11:56 Sunny 41 5 23 -5 49 49 W 14 22 30.34 1027 10 16.0934 0 0
12:56 pm 12:56 Mostly Sunny 43 6.1 24 -4.4 47 47 W 20 31 30.33 1027 10 16.0934 0 0
1:56 pm 13:56 Mostly Cloudy 45 7.2 27 -2.8 49 49 W 16 26 30.33 1027 10 16.0934 0 0
2:56 pm 14:56 Mostly Sunny 45 7.2 25 -3.9 46 46 W 18 30 30.31 1027 10 16.0934 0 0
3:56 pm 15:56 Mostly Sunny 47 8.3 26 -3.3 44 44 W 17 28 30.29 1026 10 16.0934 0 0
4:34 pm 16:34 Mostly Cloudy 46 8 27 -3 46 46 W 14 22 30.27 1025 10 16.0934 0 0
4:56 pm 16:56 Mostly Sunny 47 8.3 26 -3.3 44 44 W 13 20 30.27 1025 10 16.0934 0 0
5:56 pm 17:56 Sunny 47 8.3 25 -3.9 42 42 WNW 12 19 30.26 1025 10 16.0934 0 0
6:56 pm 18:56 Mostly Sunny 46 7.8 24 -4.4 42 42 WNW 15 24 30.27 1025 10 16.0934 0 0
7:56 pm 19:56 Sunny 43 6.1 24 -4.4 47 47 W 8 13 30.26 1025 10 16.0934 0 0
8:56 pm 20:56 Clear 41 5 24 -4.4 51 51 WNW 8 13 30.28 1025 10 16.0934 0 0
9:56 pm 21:56 Clear 41 5 25 -3.9 53 53 WNW 6 9 30.31 1026 10 16.0934 0 0
10:56 pm 22:56 Clear 40 4.4 29 -1.7 65 65 WSW 3 6 30.32 1027 10 16.0934 0 0
11:56 pm 23:56 Cloudy 40 4.4 29 -1.7 65 65 W 3 6 30.32 1027 10 16.0934 0 0

Powered by AerisWeather